Voltar ao catálogo

STARLINK-11666

AtivoComunicaçõesVLEO
NORAD 63667·PAYLOAD·🇺🇸 United States

Lançado Apr 28, 2025 de Cape Canaveral Space Force Station

Loading…

Próximas Passagens (próximas 24 horas)

TLE

AtualizadoSource: CelesTrak SupGP

Época: Sep 14, 2026, 20:49 UTC

1 63667C 25085D   26257.86784722  .00069365  00000+0  53898-3 0  2575
2 63667  43.0007 218.5014 0001511 253.7383 346.3548 15.70794804    13

Acompanhe STARLINK-11666 em tempo real com AllMySat

Download on the App Store